Tracking 19219 objects as of 19-Jul-2018
HD Live streaming from Space Station
objects crossing your sky now

FENGYUN 1C DEB

Track FENGYUN 1C DEB now!
10-day predictions


NORAD ID: 29993
Int'l Code: 1999-025LT
Perigee: 847.2 km
Apogee: 903.7 km
Inclination: 99.1 °
Period: 102.3 minutes
Semi major axis: 7246 km
RCS: 0.1148 m2 (medium)
Launch date: May 10, 1999
Source: People's Republic of China (PRC)
Launch site: Taiyaun Space Center, China (TSC)

Note: This is SATELLITE DEBRIS
aabbcc
Your satellite tracking list
Your tracking list is empty




NASA's NSSDC Master Catalog

Two Line Element Set (TLE):
1 29993U 99025LT  18199.93280070 -.00000099 +00000-0 -31364-4 0  9995
2 29993 099.1217 218.1476 0038963 327.5624 032.3149 14.07399922591317
Source of the keplerian elements: AFSPC